{"data":{"norad_id":67715,"intl_designator":"2026-025Y","name":"STARLINK-36718","alt_names":[],"object_type":"PAYLOAD","status":"ACTIVE","operator":null,"country":"US","launch_date":"2026-02-07","launch_site_code":"AFWTR","launch_vehicle":null,"mission":null,"orbit_class":"UNKNOWN","rcs_meters":null,"size_class":null,"mass_kg":null,"dimensions":null,"purposes":["comms"],"wikipedia_slug":null,"has_3d_model":false,"image_url":null,"decayed_at":null,"tle_current":{"epoch":"2026-09-19T05:54:04.277376Z","epoch_age_seconds":174832,"freshness":"STALE","line1":"1 67715U 26025Y   26262.24588284  .00017390  00000+0  53959-3 0  9993","line2":"2 67715  97.2823  12.1666 0001300  77.2337 282.9051 15.33454450 35676","mean_motion":15.3345445,"eccentricity":0.00013,"inclination_deg":97.2823,"raan_deg":12.1666,"arg_perigee_deg":77.2337,"mean_anomaly_deg":282.9051,"bstar":0.00053959,"rev_number":3567,"period_min":93.905625954524,"perigee_km":464.62538330361,"apogee_km":466.40473283871,"semimajor_km":6843.6520580712,"source":"CELESTRAK","updated_at":"2026-09-20T09:00:43.655639Z"}}}